Regional Weather Roundup
Issued by NWS Cleveland, OH

Home | Current Version | Previous Version | Graphics & Text | Print | Product List | Glossary On
Versions: 1 2 3 4 5 6 7 8 9 10 11 12 13 14 15 16 17 18 19 20 21 22 23 24 25 26 27 28 29 30 31 32 33 34 35 36 37 38 39 40 41 42 43 44 45 46 47 48 49 50
000
ASUS41 KCLE 280310
RWRCLE
OHIO REGIONAL WEATHER ROUNDUP
NATIONAL WEATHER SERVICE WILMINGTON, OH
1100 PM EDT SUN JUL 27 2014

NOTE: "FAIR" INDICATES FEW OR NO CLOUDS BELOW 12,000 FEET WITH NO
SIGNIFICANT WEATHER AND/OR OBSTRUCTIONS TO VISIBILITY.

OHZ001>008-015>018-024>027-034-035-043-044-280400-
   NORTHWEST OHIO

CITY           SKY/WX    TMP DP  RH WIND       PRES   REMARKS
DEFIANCE       MOCLDY    65  61  87 CALM      29.75R
FINDLAY        MOCLDY    67  62  84 N7        29.73R
TOLEDO EXPRESS PTCLDY    61  56  83 S3        29.72S
TOLEDO METCALF PTCLDY    65  57  75 SW6       29.72S
LIMA           CLOUDY    68  65  90 NW9       29.76R
$$

OHZ009>014-019>023-028>033-038-089-280400-
   NORTHEAST OHIO

CITY           SKY/WX    TMP DP  RH WIND       PRES   REMARKS
CLE-HOPKINS    MOCLDY    66  62  87 W6        29.69S
CLE-LAKEFRONT  CLOUDY    67  62  84 N7        29.66S
CUY CO. ARPT   PTCLDY    64  63  94 E6        29.67F
LORAIN-ELYRIA  CLOUDY    68  63  84 N5        29.69R
ASHTABULA      CLOUDY    63  61  93 VRB7      29.68F
AKRON-CANTON   MOCLDY    64  60  87 N8        29.68F
WOOSTER        PTCLDY    63  60  90 N5        29.70S
MANSFIELD      LGT RAIN  65  63  93 W6        29.74R
YOUNGSTOWN     LGT RAIN  64  61  90 CALM      29.66F
$$

OHZ042-051>053-060>062-070>072-077>081-280400-
  SOUTHWEST OHIO

CITY           SKY/WX    TMP DP  RH WIND       PRES   REMARKS
CINC-COVINGTON PTCLDY    70  65  84 W8        29.81R
CINC-LUNKEN    CLEAR     72  67  84 W7        29.79R
HAMILTON       PTCLDY    74  60  61 W9G16     29.80R
DAYTON         MOCLDY    72  59  63 NW12      29.79R
WRIGHT-PAT AFB PTCLDY    73  61  67 W9        29.77R
DAYTON GENERAL CLEAR     73  60  63 W8        29.78R
WILMINGTON     PTCLDY    71  62  73 W12       29.77R
$$

OHZ036-037-039>041-045>050-054>059-063>069-073>076-082>088-280400-
  CENTRAL AND SOUTHEAST OHIO

CITY           SKY/WX    TMP DP  RH WIND       PRES   REMARKS
COLUMBUS       PTCLDY    70  64  81 W13       29.72R
OSU AIRPORT    PTCLDY    68  64  87 NW14      29.72R
BOLTON FIELD   PTCLDY    67  64  90 W9        29.74R
RICKENBACK AFB CLEAR     68  62  80 W8        29.72S
NEWARK         CLEAR     66  62  87 W7        29.71R
MARION         CLOUDY    65  61  87 N9        29.73R
LANCASTER      CLEAR     68  64  87 W9        29.72S
ZANESVILLE     PTCLDY    69  66  90 W5        29.69S
NEW PHILLY     PTCLDY    68  66  93 N12       29.68S
$$


USA.gov is the U.S. government's official web portal to all federal, state and local government web resources and services.